• In Hungary
  • List of Countries
  • For 7 days
  • Water Temperature
  • Satellite Maps
  • Weather Map
  • News
  • Weather Widgets
  • user-avatar
    Login

    Hourly Weather Valno

    Today, 23 April, Monday

    Time Temperature Precipitation Wind Pressure Humidity
    00:00 -3°C° 0 mm 2 mps 735 mmHg 80%
    01:00 -1°C° 0 mm 1 mps 736 mmHg 82%
    02:00 -1°C° 0 mm 1 mps 736 mmHg 84%
    03:00 -2°C° 0 mm 1 mps 736 mmHg 83%
    04:00 -2°C° 0 mm 1 mps 737 mmHg 83%
    05:00 -2°C° 0 mm 1 mps 737 mmHg 82%
    06:00 0°C° 0 mm 1 mps 737 mmHg 71%
    07:00 +2°C° 0 mm 1 mps 737 mmHg 60%
    08:00 +3°C° 0 mm 2 mps 738 mmHg 50%
    09:00 +4°C° 0 mm 2 mps 738 mmHg 45%
    10:00 +6°C° 0 mm 1 mps 738 mmHg 40%
    11:00 +8°C° 0 mm 1 mps 738 mmHg 36%
    12:00 +8°C° 0 mm 1 mps 737 mmHg 35%
    13:00 +7°C° 0 mm 2 mps 737 mmHg 34%
    14:00 +8°C° 0 mm 2 mps 737 mmHg 34%
    15:00 +9°C° 0 mm 1 mps 737 mmHg 36%
    16:00 +8°C° 0 mm 1 mps 736 mmHg 37%
    17:00 +8°C° 0 mm 1 mps 736 mmHg 39%
    18:00 +6°C° 0 mm 1 mps 736 mmHg 46%
    19:00 +4°C° 0 mm 1 mps 736 mmHg 52%
    20:00 +2°C° 0 mm 1 mps 736 mmHg 59%
    21:00 +2°C° 0 mm 1 mps 736 mmHg 61%
    22:00 +1°C° 0 mm 1 mps 735 mmHg 63%
    23:00 +1°C° 0 mm 1 mps 735 mmHg 65%

    Tomorrow, 24 April, Tuesday

    Time Temperature Precipitation Wind Pressure Humidity
    00:00 -1°C° 0 mm 2 mps 735 mmHg 66%
    01:00 -1°C° 0 mm 2 mps 735 mmHg 67%
    02:00 -2°C° 0 mm 2 mps 734 mmHg 68%
    03:00 -1°C° 0 mm 2 mps 734 mmHg 66%
    04:00 -1°C° 0 mm 2 mps 734 mmHg 65%
    05:00 0°C° 0 mm 3 mps 733 mmHg 63%
    06:00 +1°C° 0 mm 3 mps 733 mmHg 61%
    07:00 +3°C° 0 mm 3 mps 732 mmHg 59%
    08:00 +4°C° 0 mm 3 mps 732 mmHg 57%
    09:00 +5°C° 0 mm 4 mps 732 mmHg 57%
    10:00 +6°C° 0 mm 4 mps 731 mmHg 57%
    11:00 +7°C° 0 mm 4 mps 731 mmHg 57%
    12:00 +7°C° 0.2 mm 4 mps 730 mmHg 61%
    13:00 +7°C° 0.2 mm 4 mps 730 mmHg 66%
    14:00 +7°C° 0.2 mm 4 mps 730 mmHg 71%
    15:00 +7°C° 0.3 mm 4 mps 729 mmHg 75%
    16:00 +7°C° 0.3 mm 3 mps 729 mmHg 80%
    17:00 +7°C° 0.3 mm 3 mps 729 mmHg 84%
    18:00 +7°C° 0 mm 3 mps 729 mmHg 88%
    19:00 +6°C° 0 mm 2 mps 729 mmHg 92%
    20:00 +6°C° 0 mm 2 mps 729 mmHg 95%
    21:00 +6°C° 0.1 mm 2 mps 729 mmHg 96%
    22:00 +6°C° 0.1 mm 2 mps 729 mmHg 96%
    23:00 +6°C° 0.1 mm 2 mps 729 mmHg 97%

    Day after tomorrow, 25 April, Wednesday

    Time Temperature Precipitation Wind Pressure Humidity
    00:00 +5°C° 0 mm 2 mps 729 mmHg 97%
    01:00 +5°C° 0 mm 2 mps 729 mmHg 96%
    02:00 +5°C° 0 mm 2 mps 729 mmHg 96%
    03:00 +4°C° 0 mm 2 mps 728 mmHg 96%
    04:00 +4°C° 0 mm 2 mps 728 mmHg 96%
    05:00 +3°C° 0 mm 2 mps 728 mmHg 96%
    06:00 +3°C° 0 mm 3 mps 728 mmHg 92%
    07:00 +4°C° 0 mm 3 mps 727 mmHg 89%
    08:00 +6°C° 0 mm 4 mps 727 mmHg 85%
    09:00 +6°C° 0.1 mm 4 mps 727 mmHg 85%
    10:00 +7°C° 0.1 mm 4 mps 727 mmHg 84%
    11:00 +7°C° 0.1 mm 4 mps 726 mmHg 84%
    12:00 +8°C° 0.3 mm 5 mps 726 mmHg 79%
    13:00 +9°C° 0.3 mm 5 mps 726 mmHg 73%
    14:00 +9°C° 0.3 mm 5 mps 726 mmHg 68%
    15:00 +9°C° 0.3 mm 5 mps 726 mmHg 68%
    16:00 +9°C° 0.3 mm 5 mps 726 mmHg 67%
    17:00 +9°C° 0.3 mm 5 mps 726 mmHg 66%
    18:00 +7°C° 0.1 mm 4 mps 726 mmHg 72%
    19:00 +7°C° 0.1 mm 3 mps 727 mmHg 77%
    20:00 +6°C° 0.1 mm 2 mps 727 mmHg 83%
    21:00 +5°C° 0 mm 2 mps 727 mmHg 85%
    22:00 +5°C° 0 mm 2 mps 727 mmHg 86%
    23:00 +4°C° 0 mm 3 mps 727 mmHg 88%

    26 April, Thursday

    Time Temperature Precipitation Wind Pressure Humidity
    00:00 +4°C° 0 mm 2 mps 727 mmHg 89%
    01:00 +4°C° 0 mm 2 mps 727 mmHg 91%
    02:00 +3°C° 0 mm 2 mps 727 mmHg 92%
    03:00 +3°C° 0 mm 2 mps 727 mmHg 92%
    04:00 +2°C° 0 mm 3 mps 727 mmHg 92%
    05:00 +2°C° 0 mm 3 mps 727 mmHg 92%
    06:00 +3°C° 0 mm 3 mps 727 mmHg 87%
    07:00 +4°C° 0 mm 3 mps 727 mmHg 82%
    08:00 +5°C° 0 mm 3 mps 728 mmHg 77%
    09:00 +7°C° 0 mm 4 mps 728 mmHg 70%
    10:00 +8°C° 0 mm 4 mps 728 mmHg 62%
    11:00 +11°C° 0 mm 4 mps 728 mmHg 55%
    12:00 +11°C° 0.3 mm 4 mps 728 mmHg 54%
    13:00 +11°C° 0.3 mm 4 mps 728 mmHg 54%
    14:00 +12°C° 0.3 mm 4 mps 728 mmHg 54%
    15:00 +11°C° 0.3 mm 4 mps 728 mmHg 56%
    16:00 +11°C° 0.3 mm 4 mps 728 mmHg 59%
    17:00 +10°C° 0.3 mm 4 mps 728 mmHg 62%
    18:00 +9°C° 0.1 mm 3 mps 729 mmHg 67%
    19:00 +8°C° 0.1 mm 3 mps 729 mmHg 73%
    20:00 +6°C° 0.1 mm 2 mps 729 mmHg 78%
    21:00 +6°C° 0.1 mm 2 mps 729 mmHg 81%
    22:00 +6°C° 0.1 mm 2 mps 730 mmHg 83%
    23:00 +4°C° 0.1 mm 3 mps 730 mmHg 85%

    27 April, Friday

    Time Temperature Precipitation Wind Pressure Humidity
    00:00 +4°C° 0.3 mm 3 mps 730 mmHg 86%
    01:00 +4°C° 0.3 mm 3 mps 730 mmHg 87%
    02:00 +4°C° 0.3 mm 3 mps 730 mmHg 89%
    03:00 +4°C° 0.1 mm 3 mps 731 mmHg 88%
    04:00 +3°C° 0.1 mm 3 mps 731 mmHg 88%
    05:00 +3°C° 0.1 mm 3 mps 732 mmHg 88%
    06:00 +4°C° 0 mm 3 mps 732 mmHg 83%
    07:00 +5°C° 0 mm 4 mps 733 mmHg 79%
    08:00 +6°C° 0 mm 4 mps 733 mmHg 74%
    09:00 +7°C° 0.1 mm 4 mps 734 mmHg 68%
    10:00 +8°C° 0.1 mm 4 mps 734 mmHg 63%
    11:00 +9°C° 0.1 mm 5 mps 734 mmHg 57%
    12:00 +10°C° 0.3 mm 4 mps 734 mmHg 56%
    13:00 +11°C° 0.3 mm 4 mps 734 mmHg 55%
    14:00 +11°C° 0.3 mm 4 mps 735 mmHg 54%
    15:00 +11°C° 0.4 mm 4 mps 735 mmHg 57%
    16:00 +11°C° 0.4 mm 4 mps 735 mmHg 61%
    17:00 +10°C° 0.4 mm 4 mps 735 mmHg 65%
    18:00 +9°C° 0.4 mm 3 mps 736 mmHg 72%
    19:00 +7°C° 0.4 mm 3 mps 736 mmHg 80%
    20:00 +6°C° 0.4 mm 2 mps 736 mmHg 88%
    21:00 +5°C° 0.1 mm 2 mps 737 mmHg 90%
    22:00 +5°C° 0.1 mm 2 mps 737 mmHg 92%
    23:00 +4°C° 0.1 mm 2 mps 738 mmHg 93%

    28 April, Saturday

    Time Temperature Precipitation Wind Pressure Humidity
    00:00 +4°C° 0 mm 2 mps 738 mmHg 94%
    01:00 +3°C° 0 mm 2 mps 738 mmHg 94%
    02:00 +3°C° 0 mm 2 mps 739 mmHg 94%
    03:00 +3°C° 0 mm 2 mps 739 mmHg 94%
    04:00 +3°C° 0 mm 2 mps 739 mmHg 95%
    05:00 +3°C° 0 mm 1 mps 740 mmHg 95%
    06:00 +4°C° 0 mm 2 mps 740 mmHg 89%
    07:00 +6°C° 0 mm 2 mps 740 mmHg 83%
    08:00 +7°C° 0 mm 2 mps 741 mmHg 77%
    09:00 +9°C° 0 mm 2 mps 741 mmHg 69%
    10:00 +10°C° 0 mm 2 mps 741 mmHg 61%
    11:00 +11°C° 0 mm 3 mps 741 mmHg 53%
    12:00 +12°C° 0 mm 3 mps 741 mmHg 49%
    13:00 +12°C° 0 mm 3 mps 741 mmHg 45%
    14:00 +13°C° 0 mm 3 mps 741 mmHg 42%
    15:00 +13°C° 0 mm 3 mps 740 mmHg 42%
    16:00 +14°C° 0 mm 2 mps 740 mmHg 42%
    17:00 +14°C° 0 mm 2 mps 740 mmHg 43%
    18:00 +12°C° 0 mm 2 mps 740 mmHg 49%
    19:00 +10°C° 0 mm 1 mps 739 mmHg 56%
    20:00 +8°C° 0 mm 1 mps 739 mmHg 62%
    21:00 +8°C° 0.1 mm 1 mps 739 mmHg 64%
    22:00 +8°C° 0.1 mm 1 mps 739 mmHg 66%
    23:00 +7°C° 0.1 mm 2 mps 739 mmHg 68%
    Show more